RH
20 23 26 20 19 18 17 16 16 13 10 18 13 13 12 11 15 17 19 22 28 33 35 44 44 48 48 56 63 65 71 72 62 56 53 53 49 51 54 60 72 72 73 72
30 31 24 22 20 22 20 21 20 16 14 18 15 14 12 11 13 14 18 22 27 31 35 44 48 50 51 54 58 62 66 65 58 55 53 50 48 51 54 61 69 72 73 74
36 30 26 26 25 26 25 25 23 22 17 15 16 19 15 12 11 14 15 18 22 28 36 43 47 50 51 53 58 60 60 62 60 62 61 55 56 56 51 53 58 70 73 76
35 29 31 32 33 28 33 21 22 21 22 25 20 25 16 13 12 15 15 17 20 24 32 39 46 48 51 53 57 55 58 60 67 60 52 47 34 36 47 53 61 67 73 75
37 33 34 35 32 27 31 25 24 23 24 24 22 25 18 15 16 14 16 16 21 23 30 38 44 46 48 54 57 58 61 62 63 61 54 50 41 52 54 59 66 69 72 73
33 25 28 28 26 25 25 30 28 28 27 37 27 23 21 16 17 15 22 20 24 27 31 37 45 47 48 53 55 59 60 57 61 61 58 50 53 52 55 57 58 61 64 67
36 34 28 25 27 30 29 30 40 40 39 37 20 22 22 19 21 24 23 24 30 34 37 41 45 47 49 53 55 56 49 51 58 59 59 60 61 61 61 59 58 60 59 63
38 38 33 28 29 29 32 30 42 68 48 34 22 30 21 34 37 39 40 36 34 40 43 45 45 48 50 53 55 51 49 56 62 64 64 64 63 60 65 67 64 66 59 61
32 29 19 18 26 28 35 36 26 39 36 42 32 23 20 38 36 44 47 49 47 47 48 47 44 49 50 53 54 51 53 58 62 64 67 71 71 69 71 74 68 65 60 56
25 30 23 23 18 18 26 22 42 39 49 47 31 27 25 30 31 46 46 49 51 50 50 49 47 51 52 54 56 61 59 58 65 72 74 75 75 75 72 67 62 59 56 56
24 28 33 28 30 23 26 28 26 31 33 38 35 27 41 46 51 44 42 45 46 49 51 49 47 50 55 58 58 63 65 70 75 77 78 77 73 74 70 63 60 57 57 57
46 43 39 30 34 31 35 39 36 47 46 38 38 39 41 43 40 40 39 35 32 34 44 49 50 52 58 61 64 73 73 74 77 76 80 78 76 72 67 62 60 58 56 60
46 68 57 64 45 43 59 61 58 54 52 49 59 60 36 37 44 48 50 44 34 32 45 54 55 60 62 65 69 70 75 73 77 79 77 78 75 68 66 62 60 57 57 59
51 73 93 89 93 72 87 84 96 97 92 84 79 74 48 47 57 54 49 39 36 32 36 48 57 62 65 67 71 72 74 73 77 76 74 80 73 69 64 63 58 57 57 58
48 60 68 69 74 75 74 68 73 90 80 93 52 73 48 39 39 47 42 38 37 36 33 40 52 58 64 69 71 70 74 80 82 74 80 84 80 76 72 68 63 61 59 60
45 62 53 56 46 55 61 49 45 44 48 57 56 54 37 34 31 34 34 40 45 42 38 33 34 45 56 62 67 69 77 82 80 86 91 91 89 84 81 73 71 67 68 72
49 57 57 57 36 41 52 39 35 34 35 42 56 35 23 26 31 32 30 30 31 28 33 44 61 61 61 65 72 79 87 87 90 94 100 95 97 98 96 84 70 73 89 83
45 52 49 55 44 85 31 24 29 31 28 30 33 28 23 25 26 27 29 28 29 43 50 68 70 70 72 74 80 88 88 94 98 100 100 98 97 99 94 93 98 98 100 98
35 39 53 65 46 35 29 28 43 43 32 25 30 26 22 23 32 24 44 52 62 79 100 96 96 87 84 87 92 94 97 100 100 100 100 98 97 98 97 96 98 98 100 100
35 40 54 46 58 59 37 24 24 26 42 20 21 24 23 32 41 37 56 62 74 83 99 99 99 98 100 99 100 100 100 100 100 100 99 96 96 94 94 94 96 98 99 99
55 60 68 57 58 44 26 24 26 49 33 24 24 31 42 47 42 76 86 98 91 94 97 95 100 99 99 100 100 100 100 100 100 99 97 97 97 97 93 96 99 98 98 96
51 59 63 60 68 68 27 33 40 30 40 32 35 37 41 45 95 98 100 99 95 87 82 83 95 100 100 100 100 100 100 100 100 98 97 98 98 86 94 97 100 99 96 90
61 43 51 44 45 32 36 30 30 32 26 36 31 33 37 78 95 98 100 99 96 84 74 80 85 96 100 100 100 100 100 98 99 100 99 98 95 91 98 97 97 92 90 79
38 34 42 44 34 38 38 31 30 33 30 26 36 35 44 97 96 98 100 99 91 77 75 78 87 95 98 100 100 100 98 98 98 98 95 88 90 94 94 91 92 85 82 74
39 38 38 37 30 35 31 30 29 32 39 39 36 40 58 82 97 94 97 91 77 75 77 79 84 87 92 99 100 100 100 99 98 97 92 86 87 90 93 87 86 84 88 77
41 44 47 50 32 39 30 25 30 35 37 40 33 63 71 54 74 72 95 90 82 78 77 77 80 82 87 93 97 99 100 99 97 95 90 88 90 93 91 91 96 95 94 72
Wind_Speed
10 8 14 14 13 13 10 11 14 17 7 7 13 18 17 12 11 13 14 17 19 20 19 20 20 18 18 17 18 18 18 16 14 13 12 10 9 9 9 9 9 8 9 10
7 14 18 11 11 11 14 15 17 17 14 11 18 21 19 18 17 17 16 17 20 19 19 20 21 21 20 19 18 18 17 16 13 10 9 9 11 8 9 9 9 9 9 10
20 12 1 11 12 12 15 17 16 16 15 17 21 25 26 23 23 18 18 18 20 23 22 20 23 23 21 21 20 20 19 17 13 12 11 12 11 10 8 7 8 8 9 9
15 16 20 16 15 14 19 13 15 15 10 12 2 15 15 7 15 18 21 19 18 20 22 20 22 24 23 22 20 20 19 18 15 15 14 14 11 11 8 8 8 8 8 9
5 7 14 19 21 15 13 2 8 10 11 13 16 12 4 4 12 15 15 16 17 17 20 20 20 22 21 20 20 18 17 17 16 15 13 12 9 11 10 10 9 7 6 7
20 8 7 12 9 13 3 10 9 9 10 13 15 13 24 14 9 13 3 6 10 12 15 16 21 22 21 20 18 17 17 15 14 13 11 10 12 12 11 10 9 6 5 5
15 23 20 11 10 7 16 10 6 8 7 12 2 12 19 2 5 5 3 5 7 9 12 15 18 22 22 21 20 18 17 16 14 13 11 12 12 10 10 8 6 6 4 5
7 8 20 17 26 16 19 16 9 7 12 15 7 11 6 7 4 0 3 6 4 7 9 13 17 22 23 23 21 19 19 16 14 12 12 11 11 10 10 8 8 6 6 4
4 5 1 2 14 15 12 19 17 16 19 13 13 18 9 6 5 2 3 2 4 7 9 12 16 20 21 20 20 20 19 17 16 14 13 11 10 10 9 9 8 7 6 4
2 6 2 4 5 9 14 5 11 9 7 15 17 16 11 1 3 3 3 4 2 2 6 9 12 19 19 19 18 17 18 19 18 17 15 13 12 11 11 10 9 8 7 7
6 7 5 4 5 9 9 11 7 6 12 12 14 7 7 7 9 7 9 7 5 1 4 7 11 16 16 17 17 17 16 18 18 16 14 14 13 12 12 11 10 9 7 7
1 3 9 12 4 2 4 2 6 9 15 9 11 14 8 10 7 8 8 7 9 6 2 7 11 15 16 18 17 18 18 18 18 17 16 15 14 12 11 11 10 9 8 7
2 1 8 6 5 4 2 5 5 6 4 15 12 4 3 3 7 10 12 14 12 7 2 6 11 15 18 19 19 20 21 19 17 16 16 16 14 13 11 11 10 9 8 8
4 2 1 3 7 4 3 2 2 2 3 2 5 11 16 9 15 17 17 14 15 9 4 7 10 13 19 20 22 21 20 20 20 19 17 16 15 14 12 11 10 9 8 9
3 7 9 9 9 10 9 12 11 12 11 8 8 12 16 16 11 15 15 13 14 13 9 7 11 12 20 24 26 26 24 21 20 20 18 17 15 12 11 10 10 9 9 9
9 7 10 12 12 14 17 19 17 19 19 19 16 22 16 19 11 13 15 14 16 15 14 11 9 13 19 23 24 25 24 24 23 21 19 20 17 14 12 10 9 10 8 9
12 8 7 9 7 7 12 19 21 19 17 14 17 20 15 11 11 14 11 11 12 12 10 8 7 9 16 21 22 24 24 24 24 24 24 25 21 16 15 12 11 12 11 9
11 14 9 9 7 11 13 4 8 12 13 15 16 15 14 13 10 7 9 12 12 8 5 3 4 8 12 16 20 22 24 24 25 26 27 26 20 16 14 14 13 13 11 10
18 14 10 10 12 15 18 14 8 9 14 15 16 16 14 10 7 11 3 3 2 2 1 3 4 7 13 18 21 22 23 25 25 27 27 26 23 20 17 16 15 14 12 10
20 18 12 11 14 14 19 1 4 5 14 7 8 11 10 4 9 4 4 2 2 2 3 4 2 7 12 16 20 25 25 25 25 27 27 26 23 20 19 17 15 14 12 11
16 15 17 15 16 12 16 8 7 9 1 3 3 3 3 5 4 3 1 1 1 1 1 3 8 12 16 18 19 20 22 23 26 30 28 24 22 20 19 17 15 14 12 11
13 12 12 15 13 17 6 11 13 8 5 6 7 7 6 6 2 4 5 5 4 3 3 5 7 8 15 18 20 18 19 23 30 31 27 23 22 20 19 18 16 13 12 12
10 9 9 9 12 2 13 9 14 8 8 10 10 8 6 4 3 2 2 3 3 3 4 5 7 9 10 13 15 18 18 27 28 23 22 22 22 20 19 18 16 14 12 12
12 8 10 10 14 9 12 14 9 12 12 9 9 8 6 6 5 5 4 5 5 6 6 7 8 9 10 12 13 16 22 26 25 22 21 22 22 21 19 17 16 13 13 12
11 13 16 17 12 4 12 14 16 14 11 11 10 9 8 8 6 8 8 8 8 11 9 8 10 10 11 12 14 17 22 24 22 22 22 22 20 20 20 16 16 13 11 10
14 12 12 11 11 14 15 12 16 14 15 16 13 10 10 13 10 8 7 9 11 10 10 12 11 11 12 14 16 19 21 23 23 22 21 21 21 20 19 17 14 10 10 12
Wind_Direction
195 229 237 241 234 273 264 253 262 266 254 275 260 261 264 245 235 234 225 215 207 204 185 178 178 174 172 169 166 164 160 157 148 144 140 135 129 117 104 89 76 60 47 38
194 232 258 291 276 244 251 253 252 270 274 263 269 261 257 254 233 239 223 214 211 200 183 184 180 179 179 174 172 169 167 163 160 157 151 146 138 127 122 107 83 67 51 45
242 247 1 246 243 244 236 252 261 264 289 274 265 271 253 247 242 232 227 218 211 203 190 188 185 184 180 178 176 175 173 171 169 161 147 139 134 137 133 116 94 72 65 49
260 257 251 244 245 241 262 239 255 259 264 272 105 290 283 290 218 228 226 220 216 205 195 191 188 187 184 179 177 178 175 175 176 170 173 171 172 161 141 119 108 87 73 67
215 209 218 237 244 230 267 257 235 239 249 276 253 267 299 158 228 228 226 222 219 211 199 191 192 188 183 176 175 177 179 181 183 183 184 177 162 144 137 127 117 105 81 70
253 244 246 246 244 231 259 224 243 254 255 253 245 239 274 264 305 209 67 234 228 211 200 190 188 186 182 176 170 173 176 177 175 177 174 168 153 153 147 145 130 115 96 72
234 237 231 223 217 198 201 193 230 230 213 253 249 224 243 39 48 51 202 200 197 195 192 187 185 184 181 175 172 171 170 165 167 165 158 148 144 140 132 121 118 124 105 65
229 224 206 209 228 211 206 214 228 236 246 269 206 244 262 69 76 181 277 275 207 194 190 193 188 187 183 178 170 169 168 162 157 153 147 144 141 134 133 130 128 114 95 91
242 238 192 2 235 232 245 226 244 272 274 273 257 258 226 152 176 151 70 86 176 195 200 202 194 193 189 178 174 172 166 162 160 155 151 148 137 134 134 128 123 111 113 101
287 273 165 116 183 229 242 327 218 225 241 239 258 259 257 87 359 80 88 74 88 206 204 201 194 195 186 183 176 175 172 165 161 159 155 150 146 145 146 136 128 129 118 98
237 239 157 192 218 238 196 234 231 266 236 264 268 269 7 52 59 69 57 48 35 338 217 206 199 191 187 184 181 179 172 167 163 161 155 149 149 157 144 140 133 126 119 110
151 272 256 256 64 350 64 326 260 233 238 235 272 270 57 73 58 49 38 16 1 348 258 197 196 185 187 191 181 180 176 178 172 163 156 156 155 160 151 144 139 134 136 128
53 202 243 190 195 118 45 24 349 282 273 246 249 253 111 347 352 338 335 326 328 340 263 211 195 192 197 195 191 186 185 181 171 166 162 159 169 160 155 150 138 146 138 127
61 122 335 326 29 28 127 320 61 345 273 313 262 301 294 313 305 302 301 301 310 316 281 225 211 202 207 199 197 193 189 185 172 172 173 172 170 163 161 151 144 144 137 126
203 243 207 215 213 207 237 243 227 232 238 235 266 253 273 278 266 261 275 281 270 275 272 228 225 214 207 202 201 195 190 184 180 178 175 172 160 157 151 151 144 141 135 125
203 242 233 244 234 226 248 251 247 246 245 244 256 264 268 274 277 266 260 257 261 267 274 268 246 221 212 210 205 198 187 181 175 176 170 163 151 153 149 150 151 136 129 126
205 221 214 249 228 248 259 249 243 249 239 239 238 248 273 273 270 272 272 254 264 282 284 281 256 217 205 201 196 186 176 175 172 169 164 168 164 158 154 152 156 141 133 135
207 214 222 254 233 235 252 276 282 248 242 233 248 265 277 276 282 292 296 284 292 305 297 305 247 203 191 188 184 179 179 175 168 161 164 167 162 155 151 152 153 139 140 138
226 232 238 233 244 254 273 250 220 228 255 248 249 255 273 284 287 274 50 359 6 357 342 292 285 192 175 170 173 171 168 168 163 162 163 167 168 157 157 155 158 141 146 143
218 225 224 232 238 258 259 356 220 240 262 264 259 258 265 282 274 308 67 36 79 30 356 335 181 164 163 167 167 163 165 163 164 163 161 170 167 164 161 160 154 146 152 141
194 202 214 224 242 253 261 243 173 225 248 145 212 211 211 237 291 115 148 243 291 282 287 176 178 171 174 168 167 165 166 171 166 166 171 164 165 163 160 153 154 150 148 143
189 193 212 232 240 249 171 163 210 228 171 190 205 206 224 260 208 194 222 239 237 216 185 182 169 167 180 174 170 166 173 168 168 168 159 158 160 160 156 154 152 148 147 155
210 204 202 207 218 175 179 202 211 196 207 209 220 230 261 276 251 244 230 215 201 211 187 184 175 168 171 179 177 163 161 163 159 154 153 155 159 159 160 157 153 151 159 165
226 225 224 214 236 208 202 217 215 210 218 222 216 234 225 201 195 209 229 200 192 189 191 184 174 173 170 176 175 168 163 160 152 151 159 160 161 162 163 162 163 168 174 175
224 186 218 235 244 265 240 232 228 225 225 232 233 224 225 214 218 210 210 212 203 178 174 189 185 181 178 170 167 164 161 158 157 157 162 164 167 167 165 169 174 179 182 183
248 225 209 225 213 220 242 232 223 221 223 224 231 218 230 224 224 215 205 208 203 186 185 182 181 180 176 173 167 166 167 164 161 162 164 167 169 169 166 168 163 167 179 184